Date,TemperatureHighF,TemperatureAvgF,TemperatureLowF,DewpointHighF,DewpointAvgF,DewpointLowF,HumidityHigh,HumidityAvg,HumidityLow,PressureMaxIn,PressureMinIn,WindSpeedMaxMPH,WindSpeedAvgMPH,GustSpeedMaxMPH,PrecipitationSumIn
2013-4-1,87.6,72.9,59.9,69.3,61.3,57.4,96,71,41,29.92,29.92,17,4,26,0.00
2013-4-2,93.7,72.7,58.3,65.5,58.2,43.2,99,68,24,29.92,29.92,12,3,17,0.00
2013-4-3,87.6,73.4,60.6,69.3,63.7,57.6,99,76,43,29.92,29.92,15,4,21,0.53
2013-4-4,72.1,69.7,66.7,70.8,67.6,63.3,99,93,79,29.92,29.92,19,5,27,0.27
2013-4-5,79.0,69.5,61.3,70.3,62.8,53.1,99,81,46,29.92,29.92,17,5,23,0.01
2013-4-6,80.1,66.4,53.8,60.6,56.1,52.6,97,73,44,29.92,29.92,14,6,24,0.00
2013-4-7,84.4,70.7,58.5,65.7,58.7,52.7,99,71,39,29.92,29.92,14,4,17,0.00
2013-4-8,88.7,72.3,58.3,70.5,59.2,52.7,99,69,35,29.92,29.92,12,3,15,0.00
2013-4-9,86.4,71.8,58.5,69.9,60.9,57.1,99,73,44,29.92,29.92,15,4,23,0.00
2013-4-10,63.9,62.3,59.9,60.7,59.7,58.5,95,91,86,29.92,29.92,2,0,3,0.00
2013-4-20,78.8,70.3,62.6,65.6,62.5,58.0,89,77,62,29.92,29.92,14,6,17,0.00
2013-4-21,83.7,70.5,62.1,73.8,66.3,57.6,98,87,64,29.92,29.92,13,4,17,0.04
2013-4-22,83.3,71.9,67.8,70.6,67.9,64.9,99,89,58,29.92,29.92,17,4,28,0.13
2013-4-23,85.5,72.7,62.8,66.1,62.0,55.7,99,74,42,29.92,29.92,14,6,23,0.00
2013-4-24,95.4,73.8,57.4,66.3,60.9,56.2,99,70,32,29.92,29.92,11,3,18,0.00
2013-4-25,94.1,76.0,59.7,68.8,60.8,52.5,99,67,31,29.92,29.92,10,2,13,0.00
2013-4-26,92.8,76.5,61.2,72.9,62.7,57.1,99,68,36,29.92,29.92,15,3,20,0.00
2013-4-27,87.6,75.5,64.2,71.0,65.6,59.4,99,75,45,29.92,29.92,16,4,21,0.00
2013-4-28,90.0,75.7,62.6,68.1,62.4,53.7,97,69,34,29.92,29.92,17,5,24,0.00
2013-4-29,91.8,75.7,62.6,69.4,63.9,59.5,98,72,39,29.92,29.92,14,3,23,0.14
2013-4-30,69.4,67.9,66.6,69.1,67.6,66.3,99,99,97,29.92,29.92,11,1,16,0.24